When you browse on this site, cookies collect data to enhance your experience and personalize the content and advertising you see.
Visit our Privacy Policy to learn more. By continuing to use the site, you agree to this use of cookies and data.
  • In Hungary
  • List of Countries
  • For 7 days
  • Water Temperature
  • Weather Map
  • News
  • Weather Widgets
  • user-avatar
    Login

    Hourly Weather Caraz

    Today, 18 November, Monday

    Time Temperature Precipitation Wind Pressure Humidity
    00:00 +12°C° 0.1 mm 1 mps 533 mmHg 80%
    01:00 +11°C° 0 mm 0 mps 532 mmHg 79%
    02:00 +11°C° 0.1 mm 0 mps 532 mmHg 79%
    03:00 +11°C° 0.1 mm 0 mps 532 mmHg 80%
    04:00 +10°C° 0.1 mm 0 mps 531 mmHg 81%
    05:00 +11°C° 0.1 mm 0 mps 532 mmHg 78%
    06:00 +11°C° 0.1 mm 0 mps 533 mmHg 74%
    07:00 +12°C° 0 mm 0 mps 534 mmHg 68%
    08:00 +14°C° 0.1 mm 1 mps 534 mmHg 66%
    09:00 +15°C° 0.1 mm 1 mps 535 mmHg 63%
    10:00 +16°C° 0.1 mm 2 mps 536 mmHg 60%
    11:00 +17°C° 0.2 mm 2 mps 535 mmHg 60%
    12:00 +17°C° 0.2 mm 3 mps 535 mmHg 60%
    13:00 +17°C° 0.2 mm 3 mps 535 mmHg 60%
    14:00 +16°C° 0.5 mm 3 mps 534 mmHg 65%
    15:00 +14°C° 0.5 mm 3 mps 533 mmHg 70%
    16:00 +14°C° 0.5 mm 2 mps 532 mmHg 75%
    17:00 +14°C° 0.3 mm 2 mps 533 mmHg 77%
    18:00 +14°C° 0.3 mm 2 mps 533 mmHg 79%
    19:00 +14°C° 0.3 mm 1 mps 533 mmHg 80%
    20:00 +13°C° 0.5 mm 1 mps 534 mmHg 80%
    21:00 +13°C° 0.5 mm 1 mps 534 mmHg 81%
    22:00 +12°C° 0.5 mm 0 mps 534 mmHg 81%
    23:00 +12°C° 0.6 mm 0 mps 534 mmHg 81%

    Tomorrow, 19 November, Tuesday

    Time Temperature Precipitation Wind Pressure Humidity
    00:00 +12°C° 0.6 mm 0 mps 534 mmHg 81%
    01:00 +12°C° 0.6 mm 0 mps 534 mmHg 82%
    02:00 +12°C° 0.5 mm 0 mps 533 mmHg 82%
    03:00 +12°C° 0.5 mm 0 mps 533 mmHg 82%
    04:00 +12°C° 0.5 mm 0 mps 533 mmHg 83%
    05:00 +12°C° 0.1 mm 0 mps 533 mmHg 80%
    06:00 +13°C° 0.1 mm 1 mps 534 mmHg 77%
    07:00 +14°C° 0.1 mm 1 mps 535 mmHg 74%
    08:00 +15°C° 0.1 mm 1 mps 535 mmHg 69%
    09:00 +16°C° 0.1 mm 1 mps 536 mmHg 64%
    10:00 +17°C° 0.1 mm 2 mps 537 mmHg 60%
    11:00 +17°C° 0.5 mm 2 mps 536 mmHg 62%
    12:00 +17°C° 0.5 mm 3 mps 536 mmHg 65%
    13:00 +17°C° 0.5 mm 3 mps 535 mmHg 67%
    14:00 +16°C° 0.5 mm 3 mps 534 mmHg 70%
    15:00 +14°C° 0.5 mm 3 mps 534 mmHg 74%
    16:00 +14°C° 0.5 mm 2 mps 533 mmHg 77%
    17:00 +13°C° 0.6 mm 2 mps 533 mmHg 76%
    18:00 +13°C° 0.6 mm 1 mps 533 mmHg 76%
    19:00 +13°C° 0.6 mm 1 mps 533 mmHg 75%
    20:00 +13°C° 0.3 mm 1 mps 534 mmHg 75%
    21:00 +13°C° 0.3 mm 1 mps 534 mmHg 75%
    22:00 +12°C° 0.3 mm 0 mps 535 mmHg 75%
    23:00 +12°C° 0.4 mm 0 mps 534 mmHg 77%

    Day after tomorrow, 20 November, Wednesday

    Time Temperature Precipitation Wind Pressure Humidity
    00:00 +13°C° 0.4 mm 1 mps 534 mmHg 78%
    01:00 +12°C° 0.4 mm 1 mps 534 mmHg 80%
    02:00 +12°C° 0.1 mm 1 mps 534 mmHg 79%
    03:00 +12°C° 0.1 mm 1 mps 534 mmHg 79%
    04:00 +12°C° 0.1 mm 1 mps 534 mmHg 78%
    05:00 +11°C° 0.1 mm 0 mps 534 mmHg 77%
    06:00 +12°C° 0.1 mm 0 mps 534 mmHg 76%
    07:00 +12°C° 0.1 mm 0 mps 534 mmHg 76%
    08:00 +14°C° 0.1 mm 1 mps 535 mmHg 71%
    09:00 +15°C° 0.1 mm 1 mps 536 mmHg 67%
    10:00 +16°C° 0.1 mm 1 mps 536 mmHg 63%
    11:00 +16°C° 0.2 mm 2 mps 536 mmHg 62%
    12:00 +17°C° 0.2 mm 2 mps 536 mmHg 60%
    13:00 +17°C° 0.2 mm 3 mps 536 mmHg 59%
    14:00 +17°C° 0.3 mm 3 mps 535 mmHg 63%
    15:00 +16°C° 0.3 mm 3 mps 534 mmHg 68%
    16:00 +16°C° 0.3 mm 3 mps 534 mmHg 72%
    17:00 +15°C° 0.2 mm 2 mps 534 mmHg 76%
    18:00 +14°C° 0.2 mm 2 mps 534 mmHg 80%
    19:00 +13°C° 0.2 mm 2 mps 534 mmHg 84%
    20:00 +13°C° 0.1 mm 1 mps 534 mmHg 83%
    21:00 +13°C° 0.1 mm 1 mps 534 mmHg 81%
    22:00 +13°C° 0.1 mm 1 mps 535 mmHg 79%
    23:00 +13°C° 0.1 mm 1 mps 534 mmHg 79%

    21 November, Thursday

    Time Temperature Precipitation Wind Pressure Humidity
    00:00 +13°C° 0.1 mm 1 mps 534 mmHg 79%
    01:00 +12°C° 0.1 mm 0 mps 534 mmHg 79%
    02:00 +12°C° 0 mm 0 mps 534 mmHg 80%
    03:00 +11°C° 0 mm 0 mps 533 mmHg 80%
    04:00 +11°C° 0 mm 0 mps 533 mmHg 81%
    05:00 +12°C° 0 mm 0 mps 533 mmHg 78%
    06:00 +12°C° 0 mm 0 mps 534 mmHg 76%
    07:00 +13°C° 0 mm 1 mps 534 mmHg 73%
    08:00 +15°C° 0 mm 1 mps 535 mmHg 68%
    09:00 +16°C° 0 mm 1 mps 536 mmHg 63%
    10:00 +17°C° 0 mm 2 mps 536 mmHg 57%
    11:00 +17°C° 0.6 mm 2 mps 536 mmHg 60%
    12:00 +17°C° 0.6 mm 3 mps 536 mmHg 62%
    13:00 +17°C° 0.6 mm 3 mps 535 mmHg 64%
    14:00 +16°C° 0.7 mm 3 mps 534 mmHg 69%
    15:00 +16°C° 0.7 mm 3 mps 534 mmHg 74%
    16:00 +14°C° 0.7 mm 3 mps 533 mmHg 79%
    17:00 +13°C° 0.3 mm 3 mps 533 mmHg 81%
    18:00 +13°C° 0.3 mm 2 mps 533 mmHg 84%
    19:00 +13°C° 0.3 mm 2 mps 533 mmHg 87%
    20:00 +13°C° 0.2 mm 1 mps 533 mmHg 85%
    21:00 +13°C° 0.2 mm 1 mps 534 mmHg 84%
    22:00 +13°C° 0.2 mm 1 mps 534 mmHg 83%
    23:00 +13°C° 0.1 mm 1 mps 534 mmHg 83%

    22 November, Friday

    Time Temperature Precipitation Wind Pressure Humidity
    00:00 +13°C° 0.1 mm 1 mps 533 mmHg 82%
    01:00 +12°C° 0.1 mm 0 mps 533 mmHg 82%
    02:00 +11°C° 0.1 mm 0 mps 533 mmHg 83%
    03:00 +11°C° 0.1 mm 0 mps 533 mmHg 83%
    04:00 +11°C° 0.1 mm 0 mps 532 mmHg 84%
    05:00 +11°C° 0 mm 0 mps 533 mmHg 82%
    06:00 +12°C° 0 mm 0 mps 533 mmHg 81%
    07:00 +12°C° 0 mm 0 mps 534 mmHg 79%
    08:00 +14°C° 0.1 mm 1 mps 534 mmHg 75%
    09:00 +15°C° 0.1 mm 2 mps 535 mmHg 71%
    10:00 +16°C° 0.1 mm 2 mps 536 mmHg 67%
    11:00 +16°C° 0.8 mm 2 mps 535 mmHg 70%
    12:00 +16°C° 0.8 mm 3 mps 535 mmHg 72%
    13:00 +16°C° 0.8 mm 3 mps 534 mmHg 74%
    14:00 +14°C° 0.8 mm 3 mps 534 mmHg 78%
    15:00 +13°C° 0.8 mm 3 mps 533 mmHg 82%
    16:00 +13°C° 0.8 mm 3 mps 532 mmHg 86%
    17:00 +13°C° 3 mm 2 mps 532 mmHg 87%
    18:00 +12°C° 3 mm 1 mps 532 mmHg 88%
    19:00 +11°C° 3 mm 1 mps 532 mmHg 89%
    20:00 +12°C° 2.1 mm 1 mps 533 mmHg 88%
    21:00 +12°C° 2.1 mm 1 mps 533 mmHg 87%
    22:00 +12°C° 2.1 mm 1 mps 533 mmHg 86%
    23:00 +12°C° 0.2 mm 1 mps 533 mmHg 86%

    23 November, Saturday

    Time Temperature Precipitation Wind Pressure Humidity
    00:00 +12°C° 0.2 mm 1 mps 533 mmHg 85%
    01:00 +12°C° 0.2 mm 1 mps 533 mmHg 84%
    02:00 +11°C° 0 mm 0 mps 532 mmHg 85%
    03:00 +11°C° 0 mm 0 mps 532 mmHg 86%
    04:00 +11°C° 0 mm 0 mps 532 mmHg 86%
    05:00 +11°C° 0 mm 0 mps 532 mmHg 85%
    06:00 +12°C° 0 mm 0 mps 533 mmHg 84%
    07:00 +13°C° 0 mm 1 mps 533 mmHg 83%
    08:00 +14°C° 0 mm 1 mps 534 mmHg 78%
    09:00 +15°C° 0 mm 1 mps 535 mmHg 73%
    10:00 +16°C° 0 mm 2 mps 535 mmHg 68%
    11:00 +16°C° 0.4 mm 2 mps 535 mmHg 71%
    12:00 +16°C° 0.4 mm 2 mps 534 mmHg 73%
    13:00 +16°C° 0.4 mm 3 mps 534 mmHg 75%
    14:00 +16°C° 0.7 mm 3 mps 533 mmHg 79%
    15:00 +14°C° 0.7 mm 3 mps 532 mmHg 83%
    16:00 +13°C° 0.7 mm 3 mps 532 mmHg 87%
    17:00 +14°C° 1.5 mm 2 mps 532 mmHg 88%
    18:00 +13°C° 1.5 mm 2 mps 532 mmHg 90%
    19:00 +13°C° 1.5 mm 2 mps 532 mmHg 91%
    20:00 +12°C° 0.6 mm 1 mps 533 mmHg 91%
    21:00 +12°C° 0.6 mm 1 mps 533 mmHg 91%
    22:00 +12°C° 0.6 mm 1 mps 533 mmHg 91%
    23:00 +12°C° 0.1 mm 1 mps 533 mmHg 90%
    Show more